This demonstration page uses our WeatherBlox Daily Observations layout. Learn more.

Left ArrowRight Arrow

41.12389, -100.76542

Hourly Observations for March 31, 2021

Temp ( °F °C ) Dew Point ( °F °C ) Humidity (%) Winds ( mph kmh ) Pressure ( in mb ) Visibility ( mi km ) Precip ( " mm )
12:53 am 00:53 Cloudy 30 -1.1 18 -7.8 61 61 NNW 5 7 30.33 1027 10 16 0.00 0.00
1:53 am 01:53 Partly Cloudy 29 -1.7 10 -12.2 45 45 ENE 3 6 30.35 1028 10 16 0.00 0.00
2:53 am 02:53 Clear 25 -3.9 9 -12.8 50 50 Calm 30.37 1029 10 16 0.00 0.00
3:53 am 03:53 Clear 20 -6.7 10 -12.2 65 65 WNW 6 9 30.39 1029 10 16 0.00 0.00
4:53 am 04:53 Clear 18 -7.8 11 -11.7 74 74 Calm 30.40 1030 10 16 0.00 0.00
5:53 am 05:53 Clear 18 -7.8 9 -12.8 68 68 NNW 3 6 30.42 1030 10 16 0.00 0.00
6:53 am 06:53 Mostly Cloudy 18 -7.8 11 -11.7 74 74 NW 5 7 30.44 1031 10 16 0.00 0.00
7:53 am 07:53 Cloudy 22 -5.6 15 -9.4 75 75 NNW 3 6 30.47 1032 10 16 0.00 0.00
8:53 am 08:53 Sunny 26 -3.3 17 -8.3 69 69 WNW 6 9 30.50 1033 10 16 0.00 0.00
9:53 am 09:53 Mostly Cloudy 33 0.6 16 -8.9 49 49 W 6 9 30.50 1033 10 16 0.00 0.00
10:53 am 10:53 Sunny 42 5.6 13 -10.6 30 30 W 13 20 30.49 1033 10 16 0.00 0.00
11:53 am 11:53 Partly Cloudy 46 7.8 17 -8.3 31 31 W 13 20 30.49 1033 10 16 0.00 0.00
12:53 pm 12:53 Mostly Cloudy 46 7.8 18 -7.8 32 32 WNW 15 24 30.48 1032 10 16 0.00 0.00
1:53 pm 13:53 Cloudy 48 8.9 18 -7.8 30 30 NW 14 22 30.46 1031 10 16 0.00 0.00
2:53 pm 14:53 Cloudy 49 9.4 17 -8.3 28 28 NNW 20 31 30.46 1032 10 16 0.00 0.00
3:53 pm 15:53 Partly Cloudy 52 11.1 18 -7.8 26 26 NW 22 35 30.46 1031 10 16 0.00 0.00
4:53 pm 16:53 Mostly Sunny 51 10.6 15 -9.4 24 24 NW 20 31 30.45 1031 10 16 0.00 0.00
5:53 pm 17:53 Sunny 51 10.6 13 -10.6 22 22 NNW 15 24 30.46 1031 10 16 0.00 0.00
6:53 pm 18:53 Sunny 49 9.4 11 -11.7 21 21 N 15 24 30.47 1032 10 16 0.00 0.00
7:53 pm 19:53 Sunny 43 6.1 11 -11.7 27 27 N 8 13 30.49 1032 10 16 0.00 0.00
8:53 pm 20:53 Clear 32 0 10 -12.2 40 40 NE 6 9 30.51 1033 10 16 0.00 0.00
9:53 pm 21:53 Clear 32 0 14 -10 47 47 ESE 5 7 30.51 1033 10 16 0.00 0.00
10:53 pm 22:53 Clear 27 -2.8 10 -12.2 49 49 ESE 3 6 30.52 1033 10 16 0.00 0.00
11:53 pm 23:53 Clear 26 -3.3 11 -11.7 53 53 ESE 3 6 30.52 1033 10 16 0.00 0.00

Powered by AerisWeather